STARLINK-32855, 62813

Orbit data source: Space-Track

STARLINK-32855, 62813 is a payload satellite owned by SpaceX/Seattle (US) in LEO that was launched on Fri, 24 Jan 2025 UTC via an FALCON 9 launch vehicle from the Air Force Western Test Range (AFWTR). Payload-class satellites include a variety of spacecraft equipped with specific instruments for various scientific and technological missions. These include communications satellites like Starlink; space stations such as the ISS; scientific satellites like the Hubble; Earth observation satellites from companies like Planet Labs, Umbra, and HawkEye 360; GPS; miniature CubeSats for education and research; and military/defense satellites.

Loading next visibility...
Identifier
62813, 2025-018H
Orbit
LEO
Last TLE update
12 hours ago
Origin
Manufacturer
SpaceX/Seattle
Mission
Operational Commercial Communications
Bus & Motor
STARLINK V2M, Unknown motor
Mass
730 kg wet, ~700 kg dry
Launch date (UTC)
2025-01-24 (5 months ago)
Launch vehicle
FALCON 9
Launch site
Air Force Western Test Range (AFWTR)
Object type
Payload
Rocket body
Debris
Shape & HBR
Box + 2 Pan, 29 m
Radar Cross Section
33.884 m², Large (>1 m²)

Expand to show TLE details & history

TLE from 12 hours ago
0 STARLINK-32855
1 62813U 25018H   25189.87715288  .00012160  00000-0  42194-3 0  9990
2 62813  53.1612   1.7980 0001676  90.7605 269.3588 15.30204364 25840
Epoch: 2025-07-08T21:03Z
TLE epoch observation values (Epoch: 2025-07-08T21:03:06.008Z)
Latitude
-0.00003°
Longitude
118.95711°
Altitude
476.115 km
Speed
7.629 km/s
True Right ascension
00h 07m 11s
True Declination
0° 00' 00"
Sunlit
Object was in daylight at epoch
Visualization orbit readout
Latitude
34.63426°
Longitude
-94.25181°
Altitude
476.833 km
Speed
7.632 km/s
Apparent Right ascension
09h 22m 47s
Apparent Declination
-1° 04' 22"
Sunlit
Object is in daylight
Visualization observer readout
Local Sidereal Time
20:46:22
Azimuth
345.664° N
Elevation
-50.282°
Doppler factor
1
Orbital elements
Apogee altitude
476.607 km
Perigee altitude
474.31 km
Semi-major axis
6,853.595 km
Eccentricity
0.00017
Inclination
53.1612°
RAAN
1.798°
Arg. of periapsis
90.7605°
True anomaly
Unknown
Mean anomaly
269.3588°
Eccentric anomaly
Unknown
Mean motion
3.8253 °/min
Orbital period
94.11 mins
BSTAR
0.00042194
Loading maneuver chart data...
Loading SW <> Apogee altitude chart data...
Loading historical data...
Loading historical data...
Loading historical data...
Loading historical data...
Loading historical data...
Loading historical data...
Loading historical data...

STARLINK-32855 Visibility forecast

Observer location: undefined°, undefined°

Span
Click to sort rows by Start time (UTC) header in descending order
Start Az.
Max El. time (UTC)
Max El. Az.
Max El.
End time (UTC)
End Az.
6 mins2025-07-09 14:29:40.692Z242.021° WSW2025-07-09 14:31:40.692Z278.592° WNW40.784°2025-07-09 14:35:40.692Z45.388° ENE
4 mins2025-07-09 19:26:40.692Z341.543° N2025-07-09 19:28:40.692Z18.831° NNE18.261°2025-07-09 19:30:40.692Z59.429° ENE
6 mins2025-07-09 21:04:40.692Z307.103° NW2025-07-09 21:06:40.692Z291.812° WNW42.102°2025-07-09 21:10:40.692Z134.62° SE
|